sat.trackr.live / text

‹ back to catalog

STARLINK-32363

NORAD 61678 · 2024-193T

PAYLOAD ACTIVE UNKNOWN

§ Identity

Operator
Country
US
Launch date
2024-10-26
Launch site
AFETR
Launch vehicle
Mass (kg)
RCS (m²)

Purposes: comms

External: N2YO · Heavens-Above · Gunter

§ Orbital elements

Epoch: 2026-09-21T16:45:36.645984Z

Period
93.85 min
Inclination
53.1577°
Eccentricity
0.0001284
Mean motion
15.34388080 rev/d
Perigee alt
461.9 km
Apogee alt
463.6 km
Semi-major
6,840.9 km
B*
7.6787e-5
RAAN
255.7989°
Arg perigee
90.1774°
Mean anomaly
269.9376°
Rev number
10,660

§ Raw data

STARLINK-323631 61678U 24193T   26264.69834081  .00002218  00000+0  76787-4 0  99972 61678  53.1577 255.7989 0001284  90.1774 269.9376 15.34388080106601

JSON: /api/v1/satellites/61678 · /tle

For live sub-satellite position, see the globe view (requires WebGL).

§ Visibility from observer

Set your observer location to see the next 7 days of passes ≥ 10°. The values pass through the URL so the page stays shareable.

No JS? Fill the form by hand. The geolocation button needs JavaScript.